Wind_Speed
19 20 20 21 21 22 23 24 25 25 26 25 28 29 30 32 33 36 39 42 43 44 46 48 50 52 53 53 53 53 53 53 53 53 53 52 52 52 52 52 51 51 50 49
17 18 18 19 20 19 21 23 24 25 25 24 25 26 29 30 31 33 37 40 42 43 44 46 48 50 53 53 53 53 53 53 53 53 54 54 53 53 52 52 52 52 52 51
16 16 17 18 18 18 18 20 22 24 24 24 25 25 26 28 30 32 34 38 41 43 44 45 47 49 52 53 53 53 54 53 53 53 54 54 54 54 54 53 53 53 53 52
15 15 16 16 17 18 19 19 20 21 23 24 25 25 26 26 28 30 32 34 39 42 43 44 46 47 49 52 53 53 54 54 54 54 54 55 55 55 55 54 54 54 53 53
14 14 14 14 14 16 18 18 19 21 22 24 25 25 26 27 27 29 31 32 35 38 40 42 44 46 47 49 51 53 53 53 54 54 54 55 56 55 55 55 54 54 54 54
15 14 13 13 13 14 15 16 18 19 20 22 24 25 26 27 27 28 30 32 34 36 38 40 42 44 46 47 49 51 52 52 53 53 53 53 54 54 55 55 55 54 54 54
14 14 13 12 12 12 14 15 16 17 19 20 22 23 24 25 26 26 27 30 33 35 37 38 40 42 44 45 48 49 51 51 52 52 52 52 52 52 53 53 53 53 54 54
15 14 13 12 12 13 13 14 15 16 18 19 21 22 23 24 25 25 26 27 30 32 34 36 38 41 42 44 46 48 49 50 50 51 51 52 52 52 52 52 53 52 53 53
15 15 14 14 14 14 14 15 15 15 16 17 18 20 21 23 23 24 25 26 28 30 31 33 35 37 39 40 43 45 47 50 51 51 51 51 52 52 51 52 52 52 52 53
15 15 15 15 15 15 15 16 16 16 15 16 16 18 19 20 22 23 24 25 26 28 29 31 32 34 36 37 39 43 45 47 49 50 50 50 51 51 51 52 53 52 52 52
15 14 14 14 15 15 15 15 16 16 16 16 16 17 17 18 19 21 22 24 25 27 28 30 31 33 35 35 37 39 41 43 46 47 47 48 49 50 50 51 51 52 52 53
15 15 15 15 15 15 15 15 15 15 15 16 16 16 16 17 18 19 20 21 23 25 26 28 30 31 32 33 35 36 37 40 42 44 45 46 47 48 48 49 50 50 51 52
16 15 16 16 15 15 15 14 15 15 15 16 16 17 16 16 17 18 19 21 21 22 23 25 27 29 29 30 31 33 34 36 38 40 41 42 43 45 47 47 48 48 49 49
17 16 16 16 16 16 15 15 14 15 15 16 16 17 17 17 17 18 18 19 19 20 21 22 24 26 28 29 30 31 33 33 34 36 39 40 41 43 44 45 45 45 45 45
18 17 17 17 17 17 16 16 16 16 16 17 17 17 17 18 18 18 19 19 19 19 20 20 21 23 25 27 30 31 32 33 33 33 35 37 38 40 42 43 43 43 43 43
18 18 18 17 17 17 17 17 17 17 17 18 18 18 19 19 19 19 19 19 20 20 20 21 22 22 23 25 27 29 30 32 33 33 34 35 37 38 38 39 40 41 42 41
18 18 17 18 18 18 18 18 18 18 18 18 18 18 19 20 21 20 20 20 20 21 21 21 22 22 23 24 25 27 29 30 31 32 33 34 35 36 37 38 38 39 40 40
19 19 19 18 18 18 18 18 18 17 18 18 19 19 20 20 21 21 21 21 21 21 21 21 22 22 23 24 24 25 27 28 28 29 30 31 33 34 35 37 37 38 39 39
21 21 20 19 19 19 18 18 18 18 18 19 19 19 19 19 20 20 20 21 21 21 21 21 21 21 22 23 24 25 26 27 27 28 29 29 30 32 33 33 34 35 36 37
22 22 21 21 20 19 19 19 19 19 18 19 19 18 18 19 19 19 20 20 20 20 20 20 21 21 22 23 24 24 26 27 28 28 29 29 30 30 31 32 33 34 34 35
23 22 21 21 20 20 20 19 19 18 18 18 18 19 19 19 19 18 19 19 19 20 19 19 20 20 21 22 23 24 26 27 28 28 29 29 30 31 31 32 32 33 34 34
24 23 22 21 20 20 19 19 18 18 18 18 18 18 19 18 18 18 18 19 19 18 18 18 18 19 20 20 21 23 24 25 27 28 28 29 30 31 31 32 32 33 33 34
24 22 21 20 20 19 19 18 18 18 18 19 19 19 18 18 18 18 18 18 17 17 17 17 17 18 19 19 20 21 22 23 25 27 27 28 29 30 30 31 32 33 33 34
23 22 20 20 19 19 18 18 18 18 18 18 18 18 18 17 17 17 17 16 16 16 16 16 17 17 18 18 19 20 20 22 23 25 26 27 28 29 29 30 31 32 32 33
23 21 20 19 19 18 18 18 18 18 17 17 17 17 17 17 16 16 15 15 15 16 16 16 16 17 17 18 19 19 20 21 22 23 24 26 26 27 28 29 30 30 31 32
23 22 20 20 19 18 18 18 17 17 17 17 17 17 17 17 16 15 14 14 14 15 15 15 16 16 17 17 18 19 20 21 22 22 23 24 25 25 26 27 28 28 29 31
23 22 21 20 19 18 18 17 17 17 17 17 17 17 17 16 15 14 14 14 15 15 15 16 17 17 17 17 18 19 20 21 22 22 22 23 24 25 25 26 26 27 28 29
Wind_Direction
281 278 271 267 264 264 260 255 254 251 250 248 246 243 240 240 240 237 234 232 231 231 232 231 232 232 232 232 233 233 233 233 234 235 236 237 238 239 240 241 242 243 244 246
283 278 273 268 266 264 262 258 254 250 249 246 245 244 242 240 239 237 236 234 232 231 231 231 232 232 232 232 233 233 233 233 234 235 236 237 238 239 240 241 242 243 244 246
291 283 276 271 267 264 262 259 254 250 249 247 246 246 245 242 241 237 236 235 234 234 233 233 232 232 233 233 232 232 233 234 235 236 237 238 239 240 241 242 243 244 245 247
301 292 284 275 266 263 262 262 256 252 249 250 249 249 248 246 244 242 240 237 235 235 235 235 235 234 233 233 232 233 233 234 235 237 238 238 239 240 241 242 243 244 246 247
310 303 295 285 273 264 263 263 259 256 253 252 252 250 250 249 247 245 243 240 237 237 236 236 236 236 235 234 233 234 234 235 237 238 239 240 241 241 242 243 244 245 246 248
314 307 301 295 283 274 268 265 261 259 258 256 254 253 250 249 249 247 245 243 240 237 237 237 237 237 236 235 235 236 236 237 238 239 240 241 242 242 243 244 245 246 247 249
312 307 301 298 291 281 275 272 267 263 261 258 257 256 254 251 249 249 249 246 243 240 239 239 238 238 238 237 236 237 237 237 238 239 239 240 241 243 243 245 246 247 248 249
312 308 304 297 294 287 283 277 275 270 266 263 261 259 256 254 252 251 251 248 245 243 241 241 240 239 239 239 237 236 237 237 237 238 238 239 240 242 243 244 245 246 247 248
312 308 303 296 292 289 286 282 280 279 273 269 265 261 258 256 255 254 253 251 248 246 245 244 243 241 242 241 239 237 237 237 237 238 239 240 241 242 243 244 245 246 247 248
314 308 303 298 294 289 286 285 283 281 278 275 269 264 261 259 258 258 256 253 250 249 247 246 245 244 243 243 241 240 238 238 238 239 241 242 243 243 244 245 246 246 248 249
317 312 306 302 298 294 291 289 285 281 279 277 273 268 265 264 261 259 257 256 253 251 250 248 247 246 246 245 243 242 240 238 238 239 241 242 243 244 244 244 245 246 247 249
317 314 311 308 306 301 296 292 287 282 277 275 273 272 271 269 264 261 259 258 256 254 253 249 248 248 247 245 243 242 240 239 239 240 242 243 243 243 244 245 245 246 247 248
317 314 312 311 311 308 303 297 289 283 280 277 275 274 273 271 267 265 264 263 261 257 253 249 246 245 245 243 240 239 238 237 238 239 241 242 242 242 243 244 245 247 248 248
314 312 311 310 310 309 307 302 297 291 286 283 281 278 274 272 270 267 266 267 265 260 257 253 250 247 246 242 239 239 238 238 238 239 240 241 241 242 242 243 244 246 246 247
312 310 309 307 306 305 304 301 298 294 290 286 282 280 277 275 273 270 269 267 265 263 260 257 254 252 248 243 241 241 240 239 239 239 240 241 242 243 243 243 244 245 246 246
313 311 308 306 305 303 301 298 297 296 293 289 284 280 278 277 276 275 273 270 267 264 262 260 257 254 250 246 243 242 241 240 241 242 242 242 243 243 243 243 243 244 244 245
314 312 309 306 304 302 301 298 295 294 293 292 288 285 281 278 277 275 273 272 271 267 264 262 259 256 252 249 246 244 242 241 241 243 244 244 244 244 243 243 244 243 244 245
312 311 310 308 305 303 301 299 297 295 294 293 292 290 287 282 278 275 273 272 271 269 267 265 262 258 255 251 249 246 243 241 242 243 244 244 244 244 244 245 245 244 244 245
310 309 307 306 304 302 300 298 297 295 294 293 293 292 290 286 282 278 275 274 273 271 268 265 261 259 256 253 251 248 245 244 244 244 244 244 245 244 244 245 245 245 246 246
310 307 305 304 303 301 299 297 296 295 294 294 293 292 291 289 285 281 277 275 273 271 268 265 262 259 257 254 252 250 249 248 247 245 245 245 246 246 246 246 247 247 248 248
309 308 305 303 302 300 299 298 296 294 293 294 293 292 292 291 288 284 279 276 274 271 266 263 262 259 257 255 253 252 251 248 246 246 246 246 246 246 246 247 248 248 249 249
310 307 304 302 301 299 298 297 294 292 292 293 294 293 294 293 290 285 280 277 274 269 266 265 263 260 258 257 255 253 251 249 247 247 247 247 246 246 247 248 248 248 249 249
311 308 304 301 299 297 296 296 294 293 292 293 294 293 293 293 291 287 282 277 273 270 267 266 264 261 259 257 255 254 253 250 249 248 249 250 249 249 249 249 249 249 249 250
313 310 306 302 299 297 295 294 294 294 293 293 294 294 294 293 291 287 283 278 273 270 269 266 263 261 260 257 256 256 255 254 253 252 251 252 252 251 251 250 250 250 251 251
315 310 306 304 301 299 297 294 294 294 294 294 294 294 294 293 291 287 283 278 275 272 270 267 264 262 261 260 259 258 258 258 258 256 255 255 254 254 252 251 251 251 251 251
316 312 307 305 302 301 299 296 294 293 293 294 294 294 294 292 290 286 282 280 277 274 271 269 269 268 266 264 263 262 262 263 262 261 260 258 256 255 253 253 252 253 252 252
319 315 310 306 302 300 299 297 296 296 294 293 293 293 292 291 288 285 283 282 280 277 274 272 271 271 269 268 267 266 265 264 264 264 262 259 257 255 254 254 255 255 255 255
Height
5514 5513 5512 5512 5512 5512 5512 5512 5513 5513 5514 5516 5517 5519 5521 5523 5526 5529 5533 5537 5541 5546 5551 5556 5561 5567 5573 5579 5585 5591 5597 5603 5609 5614 5620 5624 5629 5634 5639 5644 5648 5652 5657 5661
5509 5507 5506 5506 5506 5506 5505 5505 5506 5506 5508 5509 5509 5511 5513 5515 5517 5520 5523 5527 5531 5535 5540 5545 5550 5555 5561 5567 5573 5579 5585 5591 5597 5602 5608 5613 5617 5622 5627 5632 5636 5641 5645 5649
5504 5502 5501 5501 5500 5500 5499 5499 5499 5500 5501 5501 5503 5504 5505 5507 5509 5511 5514 5517 5521 5525 5529 5534 5539 5544 5549 5555 5561 5567 5573 5579 5584 5590 5595 5600 5605 5610 5615 5620 5624 5629 5633 5637
5498 5498 5496 5497 5494 5493 5493 5493 5492 5493 5494 5494 5495 5496 5497 5499 5500 5502 5505 5507 5511 5514 5519 5523 5528 5532 5538 5543 5549 5555 5561 5566 5572 5577 5582 5587 5593 5598 5602 5607 5612 5616 5621 5624
5494 5492 5491 5491 5489 5488 5488 5488 5487 5487 5487 5488 5488 5489 5490 5491 5492 5494 5496 5498 5501 5504 5508 5512 5517 5521 5526 5531 5537 5543 5548 5554 5559 5564 5570 5575 5580 5585 5590 5594 5599 5603 5608 5611
5490 5488 5487 5487 5484 5482 5483 5483 5481 5481 5481 5481 5481 5482 5484 5484 5485 5486 5488 5490 5492 5495 5498 5502 5506 5510 5515 5520 5525 5530 5535 5541 5546 5552 5557 5562 5567 5572 5576 5581 5586 5590 5594 5598
5487 5484 5483 5482 5480 5479 5480 5478 5476 5475 5475 5475 5474 5475 5476 5476 5477 5478 5480 5481 5483 5486 5489 5492 5496 5500 5504 5508 5513 5518 5523 5528 5534 5539 5544 5549 5554 5558 5563 5568 5572 5577 5581 5585
5483 5481 5482 5477 5476 5475 5474 5472 5470 5470 5469 5469 5468 5468 5468 5469 5470 5471 5472 5473 5474 5477 5479 5482 5486 5489 5493 5497 5501 5505 5511 5516 5521 5526 5531 5536 5541 5545 5550 5554 5559 5563 5567 5571
5480 5479 5475 5473 5471 5470 5468 5467 5466 5465 5464 5463 5462 5462 5463 5463 5463 5464 5465 5465 5467 5468 5471 5473 5476 5479 5482 5485 5489 5493 5498 5503 5508 5513 5518 5523 5528 5532 5537 5541 5545 5549 5553 5557
5475 5473 5471 5468 5466 5465 5463 5462 5460 5459 5458 5457 5457 5457 5457 5457 5457 5457 5458 5458 5459 5460 5462 5464 5466 5469 5471 5474 5478 5482 5486 5491 5495 5500 5506 5510 5515 5519 5524 5528 5532 5536 5540 5544
5471 5469 5467 5464 5462 5460 5458 5457 5455 5454 5453 5452 5451 5451 5451 5451 5450 5450 5451 5451 5452 5453 5454 5456 5457 5459 5461 5464 5467 5471 5475 5479 5484 5489 5493 5498 5502 5506 5511 5515 5518 5523 5526 5530
5467 5465 5462 5460 5457 5455 5453 5452 5450 5449 5448 5447 5446 5446 5445 5445 5444 5444 5444 5444 5444 5445 5446 5447 5448 5450 5452 5454 5457 5460 5464 5468 5472 5477 5481 5485 5489 5494 5497 5502 5505 5509 5512 5516
5463 5460 5458 5455 5453 5451 5448 5447 5445 5444 5443 5442 5441 5440 5439 5439 5438 5438 5438 5437 5437 5437 5438 5438 5439 5441 5443 5445 5447 5450 5453 5457 5461 5465 5469 5473 5477 5481 5485 5489 5492 5495 5499 5502
5458 5456 5453 5451 5449 5446 5444 5442 5440 5439 5437 5436 5435 5434 5434 5433 5433 5432 5431 5431 5431 5430 5430 5430 5431 5432 5434 5435 5438 5441 5444 5447 5451 5454 5458 5462 5465 5469 5473 5476 5479 5482 5485 5488
5454 5451 5449 5446 5444 5442 5440 5438 5436 5434 5432 5431 5430 5429 5428 5427 5427 5426 5425 5425 5424 5424 5424 5424 5424 5425 5426 5427 5429 5432 5435 5438 5441 5444 5448 5451 5454 5458 5461 5464 5467 5470 5473 5476
5449 5446 5444 5441 5439 5437 5435 5433 5431 5429 5427 5426 5424 5423 5422 5421 5420 5419 5419 5418 5418 5417 5417 5417 5417 5417 5418 5419 5421 5423 5426 5429 5431 5434 5437 5441 5444 5447 5450 5453 5455 5458 5461 5464
5444 5442 5439 5436 5434 5432 5429 5427 5425 5423 5422 5420 5418 5417 5416 5414 5413 5413 5412 5411 5411 5410 5410 5410 5410 5410 5411 5412 5413 5415 5417 5420 5422 5425 5428 5430 5433 5436 5439 5442 5444 5447 5450 5453
5439 5436 5433 5431 5428 5426 5424 5421 5419 5418 5416 5414 5412 5411 5409 5408 5406 5405 5405 5404 5404 5403 5403 5403 5403 5403 5404 5404 5406 5407 5409 5411 5414 5416 5418 5421 5423 5425 5428 5431 5433 5436 5439 5442
5433 5430 5427 5425 5422 5420 5418 5416 5414 5412 5410 5408 5406 5404 5403 5401 5400 5398 5398 5397 5396 5396 5395 5395 5395 5396 5396 5397 5398 5400 5402 5403 5406 5408 5410 5412 5414 5416 5418 5421 5423 5425 5428 5430
5427 5424 5421 5419 5416 5414 5412 5409 5408 5406 5404 5402 5400 5398 5396 5395 5393 5392 5391 5390 5389 5388 5388 5388 5388 5389 5389 5390 5391 5392 5394 5396 5397 5399 5401 5403 5405 5407 5409 5411 5413 5416 5418 5420
5420 5417 5414 5412 5410 5407 5405 5403 5401 5399 5397 5396 5394 5392 5390 5388 5387 5385 5384 5383 5382 5382 5382 5381 5381 5382 5382 5383 5383 5384 5386 5387 5389 5391 5393 5395 5397 5398 5400 5402 5404 5406 5408 5410
5413 5410 5408 5405 5403 5401 5399 5397 5395 5393 5391 5389 5388 5386 5384 5382 5380 5379 5378 5377 5376 5375 5375 5375 5375 5375 5375 5375 5376 5377 5378 5379 5381 5382 5384 5386 5387 5389 5391 5392 5394 5396 5398 5400
5406 5403 5401 5398 5396 5394 5392 5390 5388 5387 5385 5383 5381 5379 5377 5376 5374 5372 5371 5370 5370 5369 5369 5368 5368 5368 5368 5369 5369 5370 5370 5371 5373 5374 5375 5377 5378 5380 5381 5383 5384 5386 5388 5390
5400 5397 5394 5392 5389 5387 5386 5384 5382 5380 5379 5377 5375 5373 5371 5370 5368 5366 5365 5364 5364 5363 5363 5363 5362 5362 5362 5362 5363 5363 5364 5364 5365 5366 5367 5368 5369 5371 5372 5373 5375 5376 5378 5380
5394 5391 5388 5385 5383 5381 5379 5377 5376 5374 5372 5371 5369 5367 5365 5364 5362 5361 5360 5359 5358 5357 5357 5357 5356 5356 5356 5356 5356 5357 5357 5357 5358 5358 5359 5360 5360 5361 5363 5364 5365 5366 5368 5370
5387 5384 5382 5379 5377 5375 5373 5371 5370 5368 5366 5365 5363 5362 5360 5358 5357 5355 5354 5354 5353 5352 5351 5351 5351 5351 5350 5350 5350 5350 5350 5350 5350 5350 5351 5351 5352 5352 5353 5354 5356 5357 5358 5360
5381 5378 5375 5373 5370 5368 5367 5365 5364 5362 5360 5359 5357 5356 5354 5353 5351 5350 5349 5348 5347 5346 5346 5345 5345 5345 5344 5344 5343 5343 5343 5343 5343 5343 5343 5343 5343 5344 5345 5346 5347 5348 5349 5350